Time,TemperatureF,DewpointF,PressureIn,WindDirection,WindDirectionDegrees,WindSpeedMPH,WindSpeedGustMPH,Humidity,HourlyPrecipIn,Conditions,Clouds,dailyrainin,SolarRadiationWatts/m^2,SoftwareType,DateUTC
2013-11-18 00:01:00,47.0,42.4,29.03,NNW,337,4.0,8.0,84,0.00,,---,0.00,0.00,VWS V14.01,2013-11-18 05:01:00,
2013-11-18 00:02:00,47.0,42.4,29.03,West,270,0.0,4.0,84,0.00,,---,0.00,0.00,VWS V14.01,2013-11-18 05:02:00,
2013-11-18 00:07:00,46.0,41.8,29.03,WNW,292,4.0,7.0,85,0.00,,---,0.00,0.00,VWS V14.01,2013-11-18 05:07:00,
2013-11-18 00:12:00,46.0,42.0,29.04,WNW,292,0.0,3.0,86,0.00,,---,0.00,0.00,VWS V14.01,2013-11-18 05:12:00,
2013-11-18 00:17:00,46.0,41.8,29.04,NW,315,2.0,8.0,85,0.00,,---,0.00,0.00,VWS V14.01,2013-11-18 05:17:00,
2013-11-18 00:22:00,46.0,42.0,29.05,NNW,337,5.0,6.0,86,0.00,,---,0.00,0.00,VWS V14.01,2013-11-18 05:22:00,
2013-11-18 00:27:00,46.0,42.0,29.05,WNW,292,8.0,10.0,86,0.00,,---,0.00,0.00,VWS V14.01,2013-11-18 05:27:00,
2013-11-18 00:32:00,46.0,42.0,29.05,West,270,1.0,6.0,86,0.00,,---,0.00,0.00,VWS V14.01,2013-11-18 05:32:00,
2013-11-18 00:37:00,45.0,41.1,29.05,WSW,247,4.0,4.0,86,0.00,,---,0.00,0.00,VWS V14.01,2013-11-18 05:37:00,
2013-11-18 00:42:00,45.0,41.4,29.05,WNW,292,7.0,8.0,87,0.00,,---,0.00,0.00,VWS V14.01,2013-11-18 05:42:00,
2013-11-18 00:47:00,45.0,41.1,29.05,WSW,247,3.0,8.0,86,0.00,,---,0.00,0.00,VWS V14.01,2013-11-18 05:47:00,
2013-11-18 00:52:00,45.0,41.1,29.07,WSW,247,0.0,6.0,86,0.00,,---,0.00,0.00,VWS V14.01,2013-11-18 05:52:00,
2013-11-18 00:57:00,45.0,41.1,29.07,West,270,1.0,3.0,86,0.00,,---,0.00,0.00,VWS V14.01,2013-11-18 05:57:00,
2013-11-18 01:02:00,44.0,40.1,29.07,NW,315,1.0,5.0,86,0.00,,---,0.00,0.00,VWS V14.01,2013-11-18 06:02:00,
2013-11-18 01:07:00,44.0,40.4,29.07,West,270,0.0,5.0,87,0.00,,---,0.00,0.00,VWS V14.01,2013-11-18 06:07:00,
2013-11-18 01:12:00,44.0,40.4,29.07,WSW,247,0.0,7.0,87,0.00,,---,0.00,0.00,VWS V14.01,2013-11-18 06:12:00,
2013-11-18 01:17:00,44.0,40.4,29.07,West,270,4.0,6.0,87,0.00,,---,0.00,0.00,VWS V14.01,2013-11-18 06:17:00,
2013-11-18 01:22:00,44.0,40.4,29.07,WNW,292,3.0,3.0,87,0.00,,---,0.00,0.00,VWS V14.01,2013-11-18 06:22:00,
2013-11-18 01:27:00,44.0,40.1,29.07,West,270,0.0,5.0,86,0.00,,---,0.00,0.00,VWS V14.01,2013-11-18 06:27:00,
2013-11-18 01:32:00,44.0,40.1,29.08,West,270,3.0,12.0,86,0.00,,---,0.00,0.00,VWS V14.01,2013-11-18 06:32:00,
2013-11-18 01:37:00,44.0,40.1,29.08,West,270,4.0,5.0,86,0.00,,---,0.00,0.00,VWS V14.01,2013-11-18 06:37:00,
2013-11-18 01:42:00,44.0,40.1,29.09,WSW,247,0.0,3.0,86,0.00,,---,0.00,0.00,VWS V14.01,2013-11-18 06:42:00,
2013-11-18 01:47:00,43.0,39.4,29.09,WNW,292,0.0,7.0,87,0.00,,---,0.00,0.00,VWS V14.01,2013-11-18 06:47:00,
2013-11-18 01:52:00,43.0,39.4,29.09,WSW,247,0.0,4.0,87,0.00,,---,0.00,0.00,VWS V14.01,2013-11-18 06:52:00,
2013-11-18 01:57:00,43.0,39.1,29.09,South,180,0.0,0.0,86,0.00,,---,0.00,0.00,VWS V14.01,2013-11-18 06:57:00,
2013-11-18 02:02:00,43.0,39.1,29.09,NW,315,1.0,1.0,86,0.00,,---,0.00,0.00,VWS V14.01,2013-11-18 07:02:00,
2013-11-18 02:07:00,43.0,39.4,29.09,WNW,292,0.0,4.0,87,0.00,,---,0.00,0.00,VWS V14.01,2013-11-18 07:07:00,
2013-11-18 02:12:00,43.0,39.1,29.09,SW,225,2.0,2.0,86,0.00,,---,0.00,0.00,VWS V14.01,2013-11-18 07:12:00,
2013-11-18 02:17:00,43.0,39.1,29.09,NNW,337,0.0,8.0,86,0.00,,---,0.00,0.00,VWS V14.01,2013-11-18 07:17:00,
2013-11-18 02:22:00,43.0,39.1,29.09,WNW,292,0.0,0.0,86,0.00,,---,0.00,0.00,VWS V14.01,2013-11-18 07:22:00,
2013-11-18 02:27:00,43.0,39.1,29.09,West,270,1.0,5.0,86,0.00,,---,0.00,0.00,VWS V14.01,2013-11-18 07:27:00,
2013-11-18 02:32:00,42.0,37.8,29.10,WNW,292,0.0,1.0,85,0.00,,---,0.00,0.00,VWS V14.01,2013-11-18 07:32:00,
2013-11-18 02:37:00,42.0,38.1,29.10,East,90,0.0,4.0,86,0.00,,---,0.00,0.00,VWS V14.01,2013-11-18 07:37:00,
2013-11-18 02:42:00,42.0,37.8,29.11,West,270,3.0,3.0,85,0.00,,---,0.00,0.00,VWS V14.01,2013-11-18 07:42:00,
2013-11-18 02:47:00,42.0,37.8,29.11,WNW,292,1.0,5.0,85,0.00,,---,0.00,0.00,VWS V14.01,2013-11-18 07:47:00,
2013-11-18 02:52:00,42.0,37.8,29.11,West,270,0.0,0.0,85,0.00,,---,0.00,0.00,VWS V14.01,2013-11-18 07:52:00,
2013-11-18 02:57:00,42.0,37.8,29.11,SW,225,0.0,1.0,85,0.00,,---,0.00,0.00,VWS V14.01,2013-11-18 07:57:00,
2013-11-18 03:02:00,42.0,38.1,29.12,WSW,247,8.0,8.0,86,0.00,,---,0.00,0.00,VWS V14.01,2013-11-18 08:02:00,
2013-11-18 03:07:00,42.0,38.1,29.12,South,180,0.0,2.0,86,0.00,,---,0.00,0.00,VWS V14.01,2013-11-18 08:07:00,
2013-11-18 03:12:00,42.0,38.1,29.12,WNW,292,1.0,1.0,86,0.00,,---,0.00,0.00,VWS V14.01,2013-11-18 08:12:00,
2013-11-18 03:17:00,42.0,38.1,29.12,WNW,292,0.0,6.0,86,0.00,,---,0.00,0.00,VWS V14.01,2013-11-18 08:17:00,
2013-11-18 03:22:00,41.0,37.1,29.13,WNW,292,3.0,3.0,86,0.00,,---,0.00,0.00,VWS V14.01,2013-11-18 08:22:00,
2013-11-18 03:27:00,41.0,37.4,29.13,WSW,247,2.0,5.0,87,0.00,,---,0.00,0.00,VWS V14.01,2013-11-18 08:27:00,
2013-11-18 03:32:00,41.0,37.4,29.13,SW,225,0.0,0.0,87,0.00,,---,0.00,0.00,VWS V14.01,2013-11-18 08:32:00,
2013-11-18 03:37:00,41.0,37.7,29.13,West,270,1.0,7.0,88,0.00,,---,0.00,0.00,VWS V14.01,2013-11-18 08:37:00,
2013-11-18 03:42:00,41.0,37.7,29.13,South,180,1.0,3.0,88,0.00,,---,0.00,0.00,VWS V14.01,2013-11-18 08:42:00,
2013-11-18 03:47:00,41.0,37.7,29.13,West,270,0.0,3.0,88,0.00,,---,0.00,0.00,VWS V14.01,2013-11-18 08:47:00,
2013-11-18 03:52:00,41.0,37.4,29.13,WSW,247,0.0,3.0,87,0.00,,---,0.00,0.00,VWS V14.01,2013-11-18 08:52:00,
2013-11-18 03:57:00,41.0,37.4,29.13,West,270,1.0,3.0,87,0.00,,---,0.00,0.00,VWS V14.01,2013-11-18 08:57:00,
2013-11-18 04:02:00,41.0,37.4,29.13,SW,225,0.0,0.0,87,0.00,,---,0.00,0.00,VWS V14.01,2013-11-18 09:02:00,
2013-11-18 04:07:00,41.0,37.4,29.13,West,270,2.0,6.0,87,0.00,,---,0.00,0.00,VWS V14.01,2013-11-18 09:07:00,
2013-11-18 04:12:00,41.0,37.1,29.14,WNW,292,1.0,5.0,86,0.00,,---,0.00,0.00,VWS V14.01,2013-11-18 09:12:00,
2013-11-18 04:17:00,41.0,37.1,29.14,WSW,247,0.0,3.0,86,0.00,,---,0.00,0.00,VWS V14.01,2013-11-18 09:17:00,
2013-11-18 04:22:00,41.0,37.1,29.14,SW,225,1.0,1.0,86,0.00,,---,0.00,0.00,VWS V14.01,2013-11-18 09:22:00,
2013-11-18 04:27:00,41.0,37.4,29.14,WSW,247,2.0,2.0,87,0.00,,---,0.00,0.00,VWS V14.01,2013-11-18 09:27:00,
2013-11-18 04:32:00,41.0,38.0,29.14,WNW,292,0.0,4.0,89,0.00,,---,0.00,0.00,VWS V14.01,2013-11-18 09:32:00,
2013-11-18 04:37:00,41.0,38.0,29.14,NNW,337,0.0,4.0,89,0.00,,---,0.00,0.00,VWS V14.01,2013-11-18 09:37:00,
2013-11-18 04:42:00,41.0,38.0,29.14,South,180,0.0,1.0,89,0.00,,---,0.00,0.00,VWS V14.01,2013-11-18 09:42:00,
2013-11-18 04:47:00,41.0,38.3,29.14,West,270,1.0,6.0,90,0.00,,---,0.00,0.00,VWS V14.01,2013-11-18 09:47:00,
2013-11-18 04:52:00,41.0,38.0,29.15,NW,315,4.0,13.0,89,0.00,,---,0.00,0.00,VWS V14.01,2013-11-18 09:52:00,
2013-11-18 04:57:00,41.0,38.3,29.15,WSW,247,0.0,7.0,90,0.00,,---,0.00,0.00,VWS V14.01,2013-11-18 09:57:00,
2013-11-18 05:02:00,41.0,38.6,29.15,West,270,0.0,5.0,91,0.00,,---,0.00,0.00,VWS V14.01,2013-11-18 10:02:00,
2013-11-18 05:07:00,41.0,38.9,29.15,NW,315,0.0,3.0,92,0.00,,---,0.00,0.00,VWS V14.01,2013-11-18 10:07:00,
2013-11-18 05:12:00,41.0,39.1,29.15,SW,225,2.0,5.0,93,0.00,,---,0.00,0.00,VWS V14.01,2013-11-18 10:12:00,
2013-11-18 05:17:00,41.0,39.1,29.15,WSW,247,1.0,2.0,93,0.00,,---,0.00,0.00,VWS V14.01,2013-11-18 10:17:00,
2013-11-18 05:22:00,41.0,39.1,29.15,South,180,0.0,6.0,93,0.00,,---,0.00,0.00,VWS V14.01,2013-11-18 10:22:00,
2013-11-18 05:27:00,41.0,39.4,29.15,SW,225,1.0,4.0,94,0.00,,---,0.00,0.00,VWS V14.01,2013-11-18 10:27:00,
2013-11-18 05:32:00,41.0,39.4,29.15,NW,315,1.0,2.0,94,0.00,,---,0.00,0.00,VWS V14.01,2013-11-18 10:32:00,
2013-11-18 05:37:00,41.0,39.4,29.15,West,270,0.0,0.0,94,0.00,,---,0.00,0.00,VWS V14.01,2013-11-18 10:37:00,
2013-11-18 05:42:00,41.0,39.4,29.15,WNW,292,5.0,6.0,94,0.00,,---,0.00,0.00,VWS V14.01,2013-11-18 10:42:00,
2013-11-18 05:47:00,41.0,39.7,29.15,WSW,247,0.0,5.0,95,0.00,,---,0.00,0.00,VWS V14.01,2013-11-18 10:47:00,
2013-11-18 05:52:00,41.0,39.7,29.15,East,90,1.0,7.0,95,0.00,,---,0.00,0.00,VWS V14.01,2013-11-18 10:52:00,
2013-11-18 05:57:00,41.0,39.7,29.15,NW,315,0.0,3.0,95,0.00,,---,0.00,0.00,VWS V14.01,2013-11-18 10:57:00,
2013-11-18 06:02:00,41.0,39.7,29.15,NNW,337,1.0,6.0,95,0.00,,---,0.00,0.00,VWS V14.01,2013-11-18 11:02:00,
2013-11-18 06:07:00,41.0,39.4,29.15,WSW,247,0.0,4.0,94,0.00,,---,0.00,0.00,VWS V14.01,2013-11-18 11:07:00,
2013-11-18 06:12:00,41.0,39.7,29.15,SW,225,0.0,10.0,95,0.00,,---,0.00,0.00,VWS V14.01,2013-11-18 11:12:00,
2013-11-18 06:17:00,40.0,38.7,29.15,South,180,0.0,0.0,95,0.00,,---,0.00,0.00,VWS V14.01,2013-11-18 11:17:00,
2013-11-18 06:22:00,40.0,38.7,29.15,WNW,292,0.0,6.0,95,0.00,,---,0.00,0.00,VWS V14.01,2013-11-18 11:22:00,
2013-11-18 06:27:00,40.0,38.7,29.15,West,270,0.0,0.0,95,0.00,,---,0.00,0.00,VWS V14.01,2013-11-18 11:27:00,
2013-11-18 06:32:00,40.0,38.7,29.16,NE,45,0.0,3.0,95,0.00,,---,0.00,0.00,VWS V14.01,2013-11-18 11:32:00,
2013-11-18 06:37:00,40.0,38.4,29.16,WNW,292,0.0,0.0,94,0.00,,---,0.00,0.00,VWS V14.01,2013-11-18 11:37:00,
2013-11-18 06:42:00,40.0,38.4,29.16,WNW,292,4.0,6.0,94,0.00,,---,0.00,0.00,VWS V14.01,2013-11-18 11:42:00,
2013-11-18 06:47:00,40.0,38.4,29.16,SW,225,3.0,6.0,94,0.00,,---,0.00,0.00,VWS V14.01,2013-11-18 11:47:00,
2013-11-18 06:52:00,40.0,38.1,29.16,WSW,247,6.0,10.0,93,0.00,,---,0.00,0.00,VWS V14.01,2013-11-18 11:52:00,
2013-11-18 06:57:00,40.0,37.9,29.16,WSW,247,0.0,4.0,92,0.00,,---,0.00,0.00,VWS V14.01,2013-11-18 11:57:00,
2013-11-18 07:02:00,40.0,37.9,29.17,West,270,0.0,2.0,92,0.00,,---,0.00,0.00,VWS V14.01,2013-11-18 12:02:00,
2013-11-18 07:07:00,40.0,37.9,29.17,WSW,247,0.0,7.0,92,0.00,,---,0.00,0.00,VWS V14.01,2013-11-18 12:07:00,
2013-11-18 07:12:00,40.0,37.9,29.17,SSW,202,1.0,5.0,92,0.00,,---,0.00,0.00,VWS V14.01,2013-11-18 12:12:00,
2013-11-18 07:17:00,40.0,37.9,29.17,NW,315,0.0,7.0,92,0.00,,---,0.00,0.00,VWS V14.01,2013-11-18 12:17:00,
2013-11-18 07:22:00,40.0,37.9,29.17,South,180,2.0,6.0,92,0.00,,---,0.00,0.00,VWS V14.01,2013-11-18 12:22:00,
2013-11-18 07:27:00,40.0,37.6,29.17,South,180,5.0,7.0,91,0.00,,---,0.00,0.00,VWS V14.01,2013-11-18 12:27:00,
2013-11-18 07:32:00,40.0,37.3,29.18,WNW,292,2.0,5.0,90,0.00,,---,0.00,0.00,VWS V14.01,2013-11-18 12:32:00,
2013-11-18 07:37:00,39.0,36.3,29.18,South,180,4.0,4.0,90,0.00,,---,0.00,0.00,VWS V14.01,2013-11-18 12:37:00,
2013-11-18 07:42:00,39.0,36.3,29.18,NW,315,0.0,0.0,90,0.00,,---,0.00,0.00,VWS V14.01,2013-11-18 12:42:00,
2013-11-18 07:47:00,39.0,36.0,29.18,South,180,2.0,7.0,89,0.00,,---,0.00,0.00,VWS V14.01,2013-11-18 12:47:00,
2013-11-18 07:52:00,39.0,35.8,29.19,West,270,0.0,5.0,88,0.00,,---,0.00,0.00,VWS V14.01,2013-11-18 12:52:00,
2013-11-18 07:57:00,40.0,36.7,29.19,West,270,3.0,3.0,88,0.00,,---,0.00,0.00,VWS V14.01,2013-11-18 12:57:00,
2013-11-18 08:02:00,40.0,36.2,29.19,WSW,247,0.0,3.0,86,0.00,,---,0.00,0.00,VWS V14.01,2013-11-18 13:02:00,
2013-11-18 08:07:00,40.0,36.5,29.19,NE,45,0.0,1.0,87,0.00,,---,0.00,0.00,VWS V14.01,2013-11-18 13:07:00,
2013-11-18 08:12:00,40.0,36.5,29.18,West,270,0.0,10.0,87,0.00,,---,0.00,0.00,VWS V14.01,2013-11-18 13:12:00,
2013-11-18 08:17:00,41.0,37.1,29.18,WNW,292,0.0,1.0,86,0.00,,---,0.00,0.00,VWS V14.01,2013-11-18 13:17:00,
2013-11-18 08:22:00,41.0,36.5,29.18,West,270,1.0,7.0,84,0.00,,---,0.00,0.00,VWS V14.01,2013-11-18 13:22:00,
2013-11-18 08:27:00,41.0,35.9,29.18,West,270,2.0,4.0,82,0.00,,---,0.00,0.00,VWS V14.01,2013-11-18 13:27:00,
2013-11-18 08:32:00,42.0,37.2,29.19,SW,225,1.0,4.0,83,0.00,,---,0.00,0.00,VWS V14.01,2013-11-18 13:32:00,
2013-11-18 08:37:00,42.0,36.6,29.19,West,270,1.0,6.0,81,0.00,,---,0.00,0.00,VWS V14.01,2013-11-18 13:37:00,
2013-11-18 08:42:00,42.0,36.0,29.19,WNW,292,3.0,3.0,79,0.00,,---,0.00,0.00,VWS V14.01,2013-11-18 13:42:00,
2013-11-18 08:47:00,43.0,37.6,29.19,SSW,202,5.0,5.0,81,0.00,,---,0.00,0.00,VWS V14.01,2013-11-18 13:47:00,
2013-11-18 08:52:00,43.0,36.9,29.18,NW,315,7.0,10.0,79,0.00,,---,0.00,0.00,VWS V14.01,2013-11-18 13:52:00,
2013-11-18 08:57:00,43.0,36.3,29.18,WSW,247,2.0,7.0,77,0.00,,---,0.00,0.00,VWS V14.01,2013-11-18 13:57:00,
2013-11-18 09:02:00,43.0,36.6,29.19,SW,225,2.0,2.0,78,0.00,,---,0.00,0.00,VWS V14.01,2013-11-18 14:02:00,
2013-11-18 09:07:00,43.0,36.3,29.19,West,270,4.0,7.0,77,0.00,,---,0.00,0.00,VWS V14.01,2013-11-18 14:07:00,
2013-11-18 09:12:00,44.0,37.3,29.19,NW,315,3.0,4.0,77,0.00,,---,0.00,0.00,VWS V14.01,2013-11-18 14:12:00,
2013-11-18 09:17:00,44.0,36.6,29.19,SW,225,0.0,8.0,75,0.00,,---,0.00,0.00,VWS V14.01,2013-11-18 14:17:00,
2013-11-18 09:22:00,43.0,35.0,29.19,West,270,2.0,2.0,73,0.00,,---,0.00,0.00,VWS V14.01,2013-11-18 14:22:00,
2013-11-18 09:27:00,44.0,36.3,29.19,NW,315,10.0,12.0,74,0.00,,---,0.00,0.00,VWS V14.01,2013-11-18 14:27:00,
2013-11-18 09:32:00,44.0,36.3,29.19,West,270,0.0,1.0,74,0.00,,---,0.00,0.00,VWS V14.01,2013-11-18 14:32:00,
2013-11-18 09:37:00,44.0,35.6,29.19,West,270,3.0,11.0,72,0.00,,---,0.00,0.00,VWS V14.01,2013-11-18 14:37:00,
2013-11-18 09:42:00,44.0,35.6,29.19,WSW,247,3.0,3.0,72,0.00,,---,0.00,0.00,VWS V14.01,2013-11-18 14:42:00,
2013-11-18 09:47:00,45.0,37.2,29.19,SW,225,3.0,7.0,74,0.00,,---,0.00,0.00,VWS V14.01,2013-11-18 14:47:00,
2013-11-18 09:52:00,45.0,36.2,29.19,North,360,0.0,4.0,71,0.00,,---,0.00,0.00,VWS V14.01,2013-11-18 14:52:00,
2013-11-18 09:57:00,45.0,36.5,29.19,West,270,0.0,15.0,72,0.00,,---,0.00,0.00,VWS V14.01,2013-11-18 14:57:00,
2013-11-18 10:02:00,45.0,36.5,29.19,WNW,292,4.0,6.0,72,0.00,,---,0.00,0.00,VWS V14.01,2013-11-18 15:02:00,
2013-11-18 10:07:00,45.0,35.5,29.19,NW,315,0.0,6.0,69,0.00,,---,0.00,0.00,VWS V14.01,2013-11-18 15:07:00,
2013-11-18 10:12:00,45.0,36.5,29.19,NW,315,3.0,7.0,72,0.00,,---,0.00,0.00,VWS V14.01,2013-11-18 15:12:00,
2013-11-18 10:17:00,45.0,36.2,29.19,NW,315,8.0,10.0,71,0.00,,---,0.00,0.00,VWS V14.01,2013-11-18 15:17:00,
2013-11-18 10:22:00,45.0,36.2,29.19,South,180,4.0,4.0,71,0.00,,---,0.00,0.00,VWS V14.01,2013-11-18 15:22:00,
2013-11-18 10:27:00,45.0,36.5,29.19,South,180,4.0,8.0,72,0.00,,---,0.00,0.00,VWS V14.01,2013-11-18 15:27:00,
2013-11-18 10:32:00,45.0,36.2,29.20,West,270,1.0,14.0,71,0.00,,---,0.00,0.00,VWS V14.01,2013-11-18 15:32:00,
2013-11-18 10:37:00,45.0,36.5,29.20,WSW,247,2.0,10.0,72,0.00,,---,0.00,0.00,VWS V14.01,2013-11-18 15:37:00,
2013-11-18 10:42:00,46.0,37.1,29.20,NW,315,0.0,6.0,71,0.00,,---,0.00,0.00,VWS V14.01,2013-11-18 15:42:00,
2013-11-18 10:47:00,45.0,36.2,29.20,NW,315,0.0,7.0,71,0.00,,---,0.00,0.00,VWS V14.01,2013-11-18 15:47:00,
2013-11-18 10:52:00,46.0,37.1,29.20,NW,315,3.0,4.0,71,0.00,,---,0.00,0.00,VWS V14.01,2013-11-18 15:52:00,
2013-11-18 10:57:00,46.0,37.1,29.20,WNW,292,3.0,4.0,71,0.00,,---,0.00,0.00,VWS V14.01,2013-11-18 15:57:00,
2013-11-18 11:02:00,46.0,36.8,29.21,WSW,247,0.0,3.0,70,0.00,,---,0.00,0.00,VWS V14.01,2013-11-18 16:02:00,
2013-11-18 11:07:00,47.0,37.4,29.21,SE,135,5.0,6.0,69,0.00,,---,0.00,0.00,VWS V14.01,2013-11-18 16:07:00,
2013-11-18 11:12:00,47.0,37.0,29.19,West,270,2.0,8.0,68,0.00,,---,0.00,0.00,VWS V14.01,2013-11-18 16:12:00,
2013-11-18 11:17:00,46.0,36.4,29.19,NW,315,3.0,8.0,69,0.00,,---,0.00,0.00,VWS V14.01,2013-11-18 16:17:00,
2013-11-18 11:22:00,47.0,37.4,29.21,South,180,5.0,12.0,69,0.00,,---,0.00,0.00,VWS V14.01,2013-11-18 16:22:00,
2013-11-18 11:27:00,47.0,37.4,29.21,SW,225,2.0,11.0,69,0.00,,---,0.00,0.00,VWS V14.01,2013-11-18 16:27:00,
2013-11-18 11:32:00,46.0,35.7,29.21,NNW,337,0.0,10.0,67,0.00,,---,0.00,0.00,VWS V14.01,2013-11-18 16:32:00,
2013-11-18 11:37:00,46.0,35.3,29.21,NW,315,5.0,11.0,66,0.00,,---,0.00,0.00,VWS V14.01,2013-11-18 16:37:00,
2013-11-18 11:42:00,47.0,36.6,29.21,West,270,4.0,5.0,67,0.00,,---,0.00,0.00,VWS V14.01,2013-11-18 16:42:00,
2013-11-18 11:47:00,47.0,36.6,29.21,NW,315,14.0,15.0,67,0.00,,---,0.00,0.00,VWS V14.01,2013-11-18 16:47:00,
2013-11-18 11:52:00,46.0,35.7,29.21,WSW,247,5.0,10.0,67,0.00,,---,0.00,0.00,VWS V14.01,2013-11-18 16:52:00,
2013-11-18 11:57:00,46.0,35.3,29.21,NW,315,0.0,9.0,66,0.00,,---,0.00,0.00,VWS V14.01,2013-11-18 16:57:00,
2013-11-18 12:02:00,47.0,36.6,29.21,SW,225,3.0,10.0,67,0.00,,---,0.00,0.00,VWS V14.01,2013-11-18 17:02:00,
2013-11-18 12:07:00,47.0,35.9,29.21,WSW,247,3.0,8.0,65,0.00,,---,0.00,0.00,VWS V14.01,2013-11-18 17:07:00,
2013-11-18 12:12:00,47.0,35.9,29.22,NW,315,1.0,8.0,65,0.00,,---,0.00,0.00,VWS V14.01,2013-11-18 17:12:00,
2013-11-18 12:17:00,48.0,37.2,29.22,West,270,2.0,11.0,66,0.00,,---,0.00,0.00,VWS V14.01,2013-11-18 17:17:00,
2013-11-18 12:22:00,47.0,36.2,29.22,North,360,8.0,8.0,66,0.00,,---,0.00,0.00,VWS V14.01,2013-11-18 17:22:00,
2013-11-18 12:27:00,47.0,36.2,29.22,WSW,247,3.0,8.0,66,0.00,,---,0.00,0.00,VWS V14.01,2013-11-18 17:27:00,
2013-11-18 12:32:00,48.0,36.4,29.22,West,270,6.0,13.0,64,0.00,,---,0.00,0.00,VWS V14.01,2013-11-18 17:32:00,
2013-11-18 12:37:00,48.0,36.8,29.22,South,180,0.0,7.0,65,0.00,,---,0.00,0.00,VWS V14.01,2013-11-18 17:37:00,
2013-11-18 12:42:00,48.0,35.6,29.22,WSW,247,12.0,12.0,62,0.00,,---,0.00,0.00,VWS V14.01,2013-11-18 17:42:00,
2013-11-18 12:47:00,48.0,36.0,29.22,SE,135,3.0,9.0,63,0.00,,---,0.00,0.00,VWS V14.01,2013-11-18 17:47:00,
2013-11-18 12:52:00,48.0,36.8,29.22,West,270,3.0,5.0,65,0.00,,---,0.00,0.00,VWS V14.01,2013-11-18 17:52:00,
2013-11-18 12:57:00,47.0,34.7,29.22,West,270,8.0,10.0,62,0.00,,---,0.00,0.00,VWS V14.01,2013-11-18 17:57:00,
2013-11-18 13:02:00,48.0,36.0,29.22,West,270,5.0,19.0,63,0.00,,---,0.00,0.00,VWS V14.01,2013-11-18 18:02:00,
2013-11-18 13:07:00,48.0,35.6,29.22,SW,225,2.0,9.0,62,0.00,,---,0.00,0.00,VWS V14.01,2013-11-18 18:07:00,
2013-11-18 13:12:00,48.0,35.2,29.22,WNW,292,6.0,14.0,61,0.00,,---,0.00,0.00,VWS V14.01,2013-11-18 18:12:00,
2013-11-18 13:17:00,48.0,36.0,29.22,WNW,292,0.0,8.0,63,0.00,,---,0.00,0.00,VWS V14.01,2013-11-18 18:17:00,
2013-11-18 13:22:00,47.0,35.1,29.23,NW,315,9.0,9.0,63,0.00,,---,0.00,0.00,VWS V14.01,2013-11-18 18:22:00,
2013-11-18 13:27:00,48.0,35.6,29.23,NNW,337,3.0,13.0,62,0.00,,---,0.00,0.00,VWS V14.01,2013-11-18 18:27:00,
2013-11-18 13:32:00,48.0,36.4,29.22,WNW,292,3.0,13.0,64,0.00,,---,0.00,0.00,VWS V14.01,2013-11-18 18:32:00,
2013-11-18 13:37:00,49.0,36.6,29.22,WNW,292,4.0,10.0,62,0.00,,---,0.00,0.00,VWS V14.01,2013-11-18 18:37:00,
2013-11-18 13:42:00,49.0,34.9,29.20,West,270,0.0,19.0,58,0.00,,---,0.00,0.00,VWS V14.01,2013-11-18 18:42:00,
2013-11-18 13:47:00,48.0,34.8,29.20,SW,225,3.0,7.0,60,0.00,,---,0.00,0.00,VWS V14.01,2013-11-18 18:47:00,
2013-11-18 13:52:00,49.0,35.7,29.22,NW,315,4.0,14.0,60,0.00,,---,0.00,0.00,VWS V14.01,2013-11-18 18:52:00,
2013-11-18 13:57:00,49.0,35.7,29.22,WNW,292,10.0,13.0,60,0.00,,---,0.00,0.00,VWS V14.01,2013-11-18 18:57:00,
2013-11-18 14:02:00,48.0,34.8,29.23,WNW,292,1.0,6.0,60,0.00,,---,0.00,0.00,VWS V14.01,2013-11-18 19:02:00,
2013-11-18 14:07:00,48.0,33.9,29.23,WNW,292,6.0,7.0,58,0.00,,---,0.00,0.00,VWS V14.01,2013-11-18 19:07:00,
2013-11-18 14:12:00,49.0,35.7,29.23,West,270,8.0,8.0,60,0.00,,---,0.00,0.00,VWS V14.01,2013-11-18 19:12:00,
2013-11-18 14:17:00,49.0,35.3,29.23,WNW,292,6.0,9.0,59,0.00,,---,0.00,0.00,VWS V14.01,2013-11-18 19:17:00,
2013-11-18 14:22:00,48.0,33.9,29.23,West,270,0.0,9.0,58,0.00,,---,0.00,0.00,VWS V14.01,2013-11-18 19:22:00,
2013-11-18 14:27:00,49.0,35.3,29.23,NW,315,5.0,9.0,59,0.00,,---,0.00,0.00,VWS V14.01,2013-11-18 19:27:00,
2013-11-18 14:32:00,49.0,34.9,29.22,WNW,292,0.0,7.0,58,0.00,,---,0.00,0.00,VWS V14.01,2013-11-18 19:32:00,
2013-11-18 14:37:00,49.0,34.5,29.22,SSW,202,3.0,6.0,57,0.00,,---,0.00,0.00,VWS V14.01,2013-11-18 19:37:00,
2013-11-18 14:42:00,49.0,34.5,29.23,SSW,202,2.0,11.0,57,0.00,,---,0.00,0.00,VWS V14.01,2013-11-18 19:42:00,
2013-11-18 14:47:00,49.0,34.0,29.23,NW,315,1.0,7.0,56,0.00,,---,0.00,0.00,VWS V14.01,2013-11-18 19:47:00,
2013-11-18 14:52:00,49.0,34.0,29.23,WNW,292,3.0,10.0,56,0.00,,---,0.00,0.00,VWS V14.01,2013-11-18 19:52:00,
2013-11-18 14:57:00,49.0,33.1,29.23,SW,225,4.0,11.0,54,0.00,,---,0.00,0.00,VWS V14.01,2013-11-18 19:57:00,
2013-11-18 15:02:00,49.0,32.6,29.23,WNW,292,0.0,9.0,53,0.00,,---,0.00,0.00,VWS V14.01,2013-11-18 20:02:00,
2013-11-18 15:07:00,49.0,33.1,29.23,SW,225,0.0,4.0,54,0.00,,---,0.00,0.00,VWS V14.01,2013-11-18 20:07:00,
2013-11-18 15:12:00,49.0,32.6,29.23,WSW,247,4.0,8.0,53,0.00,,---,0.00,0.00,VWS V14.01,2013-11-18 20:12:00,
2013-11-18 15:17:00,49.0,32.2,29.23,WNW,292,0.0,9.0,52,0.00,,---,0.00,0.00,VWS V14.01,2013-11-18 20:17:00,
2013-11-18 15:22:00,49.0,32.6,29.24,West,270,0.0,5.0,53,0.00,,---,0.00,0.00,VWS V14.01,2013-11-18 20:22:00,
2013-11-18 15:27:00,49.0,33.1,29.24,NNW,337,0.0,5.0,54,0.00,,---,0.00,0.00,VWS V14.01,2013-11-18 20:27:00,
2013-11-18 15:32:00,49.0,32.6,29.24,NNW,337,4.0,9.0,53,0.00,,---,0.00,0.00,VWS V14.01,2013-11-18 20:32:00,
2013-11-18 15:37:00,49.0,32.2,29.24,West,270,5.0,10.0,52,0.00,,---,0.00,0.00,VWS V14.01,2013-11-18 20:37:00,
2013-11-18 15:42:00,48.0,28.8,29.23,West,270,5.0,18.0,47,0.00,,---,0.00,0.00,VWS V14.01,2013-11-18 20:42:00,
2013-11-18 15:47:00,48.0,29.8,29.23,NW,315,3.0,10.0,49,0.00,,---,0.00,0.00,VWS V14.01,2013-11-18 20:47:00,
2013-11-18 15:52:00,48.0,30.8,29.25,WSW,247,0.0,1.0,51,0.00,,---,0.00,0.00,VWS V14.01,2013-11-18 20:52:00,
2013-11-18 15:57:00,48.0,31.2,29.25,WNW,292,0.0,4.0,52,0.00,,---,0.00,0.00,VWS V14.01,2013-11-18 20:57:00,
2013-11-18 16:02:00,47.0,28.9,29.26,NNE,22,0.0,0.0,49,0.00,,---,0.00,0.00,VWS V14.01,2013-11-18 21:02:00,
2013-11-18 16:07:00,47.0,28.3,29.26,West,270,7.0,19.0,48,0.00,,---,0.00,0.00,VWS V14.01,2013-11-18 21:07:00,
2013-11-18 16:12:00,46.0,27.9,29.27,WSW,247,6.0,14.0,49,0.00,,---,0.00,0.00,VWS V14.01,2013-11-18 21:12:00,
2013-11-18 16:17:00,46.0,28.9,29.27,NW,315,5.0,8.0,51,0.00,,---,0.00,0.00,VWS V14.01,2013-11-18 21:17:00,
2013-11-18 16:22:00,46.0,29.4,29.28,WNW,292,6.0,11.0,52,0.00,,---,0.00,0.00,VWS V14.01,2013-11-18 21:22:00,
2013-11-18 16:27:00,46.0,30.3,29.28,WNW,292,2.0,7.0,54,0.00,,---,0.00,0.00,VWS V14.01,2013-11-18 21:27:00,
2013-11-18 16:32:00,46.0,30.8,29.29,WNW,292,7.0,9.0,55,0.00,,---,0.00,0.00,VWS V14.01,2013-11-18 21:32:00,
2013-11-18 16:37:00,45.0,30.7,29.29,WNW,292,3.0,5.0,57,0.00,,---,0.00,0.00,VWS V14.01,2013-11-18 21:37:00,
2013-11-18 16:42:00,45.0,29.8,29.31,NW,315,0.0,6.0,55,0.00,,---,0.00,0.00,VWS V14.01,2013-11-18 21:42:00,
2013-11-18 16:47:00,44.0,28.4,29.31,NW,315,6.0,9.0,54,0.00,,---,0.00,0.00,VWS V14.01,2013-11-18 21:47:00,
2013-11-18 16:52:00,44.0,28.4,29.31,NW,315,9.0,14.0,54,0.00,,---,0.00,0.00,VWS V14.01,2013-11-18 21:52:00,
2013-11-18 16:57:00,44.0,29.8,29.31,NW,315,5.0,6.0,57,0.00,,---,0.00,0.00,VWS V14.01,2013-11-18 21:57:00,
2013-11-18 17:02:00,43.0,28.8,29.32,West,270,2.0,10.0,57,0.00,,---,0.00,0.00,VWS V14.01,2013-11-18 22:02:00,
2013-11-18 17:07:00,43.0,30.1,29.32,NW,315,6.0,6.0,60,0.00,,---,0.00,0.00,VWS V14.01,2013-11-18 22:07:00,
2013-11-18 17:12:00,43.0,30.5,29.33,NW,315,2.0,5.0,61,0.00,,---,0.00,0.00,VWS V14.01,2013-11-18 22:12:00,
2013-11-18 17:17:00,43.0,30.9,29.33,West,270,0.0,6.0,62,0.00,,---,0.00,0.00,VWS V14.01,2013-11-18 22:17:00,
2013-11-18 17:22:00,42.0,29.9,29.33,North,360,0.0,4.0,62,0.00,,---,0.00,0.00,VWS V14.01,2013-11-18 22:22:00,
2013-11-18 17:27:00,42.0,30.3,29.33,NW,315,5.0,5.0,63,0.00,,---,0.00,0.00,VWS V14.01,2013-11-18 22:27:00,
2013-11-18 17:32:00,42.0,29.5,29.34,WNW,292,4.0,11.0,61,0.00,,---,0.00,0.00,VWS V14.01,2013-11-18 22:32:00,
2013-11-18 17:37:00,42.0,30.3,29.34,South,180,0.0,2.0,63,0.00,,---,0.00,0.00,VWS V14.01,2013-11-18 22:37:00,
2013-11-18 17:42:00,41.0,29.4,29.35,NW,315,0.0,4.0,63,0.00,,---,0.00,0.00,VWS V14.01,2013-11-18 22:42:00,
2013-11-18 17:47:00,41.0,30.1,29.35,WNW,292,0.0,0.0,65,0.00,,---,0.00,0.00,VWS V14.01,2013-11-18 22:47:00,
2013-11-18 17:52:00,40.0,29.6,29.35,West,270,0.0,3.0,66,0.00,,---,0.00,0.00,VWS V14.01,2013-11-18 22:52:00,
2013-11-18 17:57:00,40.0,29.6,29.35,South,180,0.0,1.0,66,0.00,,---,0.00,0.00,VWS V14.01,2013-11-18 22:57:00,
2013-11-18 18:02:00,40.0,29.2,29.36,WSW,247,0.0,0.0,65,0.00,,---,0.00,0.00,VWS V14.01,2013-11-18 23:02:00,
2013-11-18 18:07:00,40.0,28.8,29.36,WNW,292,1.0,5.0,64,0.00,,---,0.00,0.00,VWS V14.01,2013-11-18 23:07:00,
2013-11-18 18:12:00,40.0,28.8,29.37,WNW,292,0.0,5.0,64,0.00,,---,0.00,0.00,VWS V14.01,2013-11-18 23:12:00,
2013-11-18 18:17:00,40.0,28.4,29.37,WNW,292,4.0,8.0,63,0.00,,---,0.00,0.00,VWS V14.01,2013-11-18 23:17:00,
2013-11-18 18:22:00,40.0,28.4,29.37,WNW,292,1.0,5.0,63,0.00,,---,0.00,0.00,VWS V14.01,2013-11-18 23:22:00,
2013-11-18 18:27:00,40.0,28.4,29.37,WNW,292,4.0,7.0,63,0.00,,---,0.00,0.00,VWS V14.01,2013-11-18 23:27:00,
2013-11-18 18:32:00,40.0,28.4,29.39,South,180,0.0,3.0,63,0.00,,---,0.00,0.00,VWS V14.01,2013-11-18 23:32:00,
2013-11-18 18:37:00,39.0,27.9,29.39,SSW,202,0.0,6.0,64,0.00,,---,0.00,0.00,VWS V14.01,2013-11-18 23:37:00,
2013-11-18 18:42:00,39.0,28.2,29.39,SW,225,0.0,6.0,65,0.00,,---,0.00,0.00,VWS V14.01,2013-11-18 23:42:00,
2013-11-18 18:47:00,39.0,28.6,29.39,WSW,247,2.0,3.0,66,0.00,,---,0.00,0.00,VWS V14.01,2013-11-18 23:47:00,
2013-11-18 18:52:00,38.0,28.0,29.40,WNW,292,0.0,6.0,67,0.00,,---,0.00,0.00,VWS V14.01,2013-11-18 23:52:00,
2013-11-18 18:57:00,38.0,28.4,29.40,WNW,292,4.0,4.0,68,0.00,,---,0.00,0.00,VWS V14.01,2013-11-18 23:57:00,
2013-11-18 19:02:00,38.0,28.8,29.40,NW,315,0.0,4.0,69,0.00,,---,0.00,0.00,VWS V14.01,2013-11-19 00:02:00,
2013-11-18 19:07:00,38.0,29.1,29.40,WNW,292,0.0,3.0,70,0.00,,---,0.00,0.00,VWS V14.01,2013-11-19 00:07:00,
2013-11-18 19:12:00,38.0,29.5,29.41,WNW,292,0.0,0.0,71,0.00,,---,0.00,0.00,VWS V14.01,2013-11-19 00:12:00,
2013-11-18 19:17:00,37.0,28.8,29.41,NW,315,0.0,2.0,72,0.00,,---,0.00,0.00,VWS V14.01,2013-11-19 00:17:00,
2013-11-18 19:22:00,37.0,29.5,29.41,NW,315,0.0,3.0,74,0.00,,---,0.00,0.00,VWS V14.01,2013-11-19 00:22:00,
2013-11-18 19:27:00,37.0,29.5,29.41,WNW,292,0.0,0.0,74,0.00,,---,0.00,0.00,VWS V14.01,2013-11-19 00:27:00,
2013-11-18 19:32:00,37.0,29.5,29.41,SSE,157,0.0,0.0,74,0.00,,---,0.00,0.00,VWS V14.01,2013-11-19 00:32:00,
2013-11-18 19:37:00,37.0,30.1,29.41,WNW,292,0.0,0.0,76,0.00,,---,0.00,0.00,VWS V14.01,2013-11-19 00:37:00,
2013-11-18 19:42:00,36.0,29.2,29.41,WNW,292,0.0,0.0,76,0.00,,---,0.00,0.00,VWS V14.01,2013-11-19 00:42:00,
2013-11-18 19:47:00,36.0,29.5,29.41,NW,315,0.0,0.0,77,0.00,,---,0.00,0.00,VWS V14.01,2013-11-19 00:47:00,
2013-11-18 19:52:00,36.0,29.8,29.42,WNW,292,0.0,3.0,78,0.00,,---,0.00,0.00,VWS V14.01,2013-11-19 00:52:00,
2013-11-18 19:57:00,36.0,30.1,29.42,West,270,1.0,4.0,79,0.00,,---,0.00,0.00,VWS V14.01,2013-11-19 00:57:00,
2013-11-18 20:02:00,36.0,30.1,29.42,NW,315,0.0,1.0,79,0.00,,---,0.00,0.00,VWS V14.01,2013-11-19 01:02:00,
2013-11-18 20:07:00,35.0,29.2,29.42,NW,315,0.0,0.0,79,0.00,,---,0.00,0.00,VWS V14.01,2013-11-19 01:07:00,
2013-11-18 20:12:00,35.0,29.2,29.43,NW,315,0.0,0.0,79,0.00,,---,0.00,0.00,VWS V14.01,2013-11-19 01:12:00,
2013-11-18 20:17:00,35.0,29.8,29.43,West,270,0.0,0.0,81,0.00,,---,0.00,0.00,VWS V14.01,2013-11-19 01:17:00,
2013-11-18 20:22:00,34.0,28.8,29.43,West,270,0.0,0.0,81,0.00,,---,0.00,0.00,VWS V14.01,2013-11-19 01:22:00,
2013-11-18 20:27:00,34.0,29.1,29.43,WNW,292,0.0,0.0,82,0.00,,---,0.00,0.00,VWS V14.01,2013-11-19 01:27:00,
2013-11-18 20:32:00,34.0,29.1,29.44,WNW,292,0.0,0.0,82,0.00,,---,0.00,0.00,VWS V14.01,2013-11-19 01:32:00,
2013-11-18 20:37:00,34.0,29.1,29.44,WNW,292,0.0,0.0,82,0.00,,---,0.00,0.00,VWS V14.01,2013-11-19 01:37:00,
2013-11-18 20:42:00,33.0,28.7,29.44,WNW,292,0.0,1.0,84,0.00,,---,0.00,0.00,VWS V14.01,2013-11-19 01:42:00,
2013-11-18 20:44:00,33.0,29.0,29.44,WNW,292,0.0,0.0,85,0.00,,---,0.00,0.00,VWS V14.01,2013-11-19 01:44:00,
2013-11-18 20:49:00,33.0,28.7,29.44,WNW,292,0.0,0.0,84,0.00,,---,0.00,0.00,VWS V14.01,2013-11-19 01:49:00,
2013-11-18 20:54:00,33.0,28.7,29.45,WNW,292,0.0,0.0,84,0.00,,---,0.00,0.00,VWS V14.01,2013-11-19 01:54:00,
2013-11-18 20:59:00,33.0,29.6,29.45,NW,315,0.0,0.0,87,0.00,,---,0.00,0.00,VWS V14.01,2013-11-19 01:59:00,
2013-11-18 21:04:00,33.0,29.6,29.45,NW,315,0.0,0.0,87,0.00,,---,0.00,0.00,VWS V14.01,2013-11-19 02:04:00,
2013-11-18 21:09:00,33.0,29.6,29.45,SW,225,0.0,0.0,87,0.00,,---,0.00,0.00,VWS V14.01,2013-11-19 02:09:00,
2013-11-18 21:14:00,33.0,29.6,29.46,NNW,337,0.0,0.0,87,0.00,,---,0.00,0.00,VWS V14.01,2013-11-19 02:14:00,
2013-11-18 21:19:00,33.0,29.6,29.46,West,270,0.0,0.0,87,0.00,,---,0.00,0.00,VWS V14.01,2013-11-19 02:19:00,
2013-11-18 21:24:00,33.0,29.8,29.46,West,270,0.0,0.0,88,0.00,,---,0.00,0.00,VWS V14.01,2013-11-19 02:24:00,
2013-11-18 21:29:00,33.0,30.1,29.46,WNW,292,0.0,0.0,89,0.00,,---,0.00,0.00,VWS V14.01,2013-11-19 02:29:00,
2013-11-18 21:34:00,33.0,30.1,29.47,NW,315,0.0,2.0,89,0.00,,---,0.00,0.00,VWS V14.01,2013-11-19 02:34:00,
2013-11-18 21:39:00,33.0,29.6,29.47,North,360,0.0,0.0,87,0.00,,---,0.00,0.00,VWS V14.01,2013-11-19 02:39:00,
2013-11-18 21:44:00,32.0,28.9,29.47,North,360,0.0,0.0,88,0.00,,---,0.00,0.00,VWS V14.01,2013-11-19 02:44:00,
2013-11-18 21:49:00,32.0,29.7,29.47,West,270,0.0,0.0,91,0.00,,---,0.00,0.00,VWS V14.01,2013-11-19 02:49:00,
2013-11-18 21:54:00,32.0,29.9,29.47,WNW,292,0.0,0.0,92,0.00,,---,0.00,0.00,VWS V14.01,2013-11-19 02:54:00,
2013-11-18 21:59:00,32.0,29.7,29.47,WNW,292,0.0,0.0,91,0.00,,---,0.00,0.00,VWS V14.01,2013-11-19 02:59:00,
2013-11-18 22:04:00,31.0,28.7,29.48,South,180,0.0,0.0,91,0.00,,---,0.00,0.00,VWS V14.01,2013-11-19 03:04:00,
2013-11-18 22:09:00,31.0,29.0,29.48,South,180,0.0,0.0,92,0.00,,---,0.00,0.00,VWS V14.01,2013-11-19 03:09:00,
2013-11-18 22:14:00,31.0,29.5,29.48,South,180,0.0,0.0,94,0.00,,---,0.00,0.00,VWS V14.01,2013-11-19 03:14:00,
2013-11-18 22:20:00,31.0,29.7,29.48,South,180,0.0,0.0,95,0.00,,---,0.00,0.00,VWS V14.01,2013-11-19 03:20:00,
2013-11-18 22:25:00,31.0,30.0,29.48,WNW,292,0.0,0.0,96,0.00,,---,0.00,0.00,VWS V14.01,2013-11-19 03:25:00,
2013-11-18 22:30:00,31.0,29.7,29.48,WNW,292,0.0,0.0,95,0.00,,---,0.00,0.00,VWS V14.01,2013-11-19 03:30:00,
2013-11-18 22:35:00,30.0,28.7,29.49,WNW,292,0.0,0.0,95,0.00,,---,0.00,0.00,VWS V14.01,2013-11-19 03:35:00,
2013-11-18 22:40:00,30.0,29.0,29.49,WNW,292,0.0,0.0,96,0.00,,---,0.00,0.00,VWS V14.01,2013-11-19 03:40:00,
2013-11-18 22:45:00,30.0,29.5,29.50,WNW,292,0.0,0.0,98,0.00,,---,0.00,0.00,VWS V14.01,2013-11-19 03:45:00,
2013-11-18 22:50:00,30.0,29.5,29.50,WNW,292,0.0,0.0,98,0.00,,---,0.00,0.00,VWS V14.01,2013-11-19 03:50:00,
2013-11-18 22:55:00,30.0,29.2,29.49,WNW,292,0.0,0.0,97,0.00,,---,0.00,0.00,VWS V14.01,2013-11-19 03:55:00,
2013-11-18 23:00:00,30.0,29.8,29.49,NW,315,0.0,0.0,99,0.00,,---,0.00,0.00,VWS V14.01,2013-11-19 04:00:00,
2013-11-18 23:05:00,30.0,29.5,29.49,NW,315,0.0,0.0,98,0.00,,---,0.00,0.00,VWS V14.01,2013-11-19 04:05:00,
2013-11-18 23:08:00,30.0,29.5,29.49,West,270,0.0,0.0,98,0.00,,---,0.00,0.00,VWS V14.01,2013-11-19 04:08:00,
2013-11-18 23:13:00,30.0,29.5,29.49,NW,315,0.0,0.0,98,0.00,,---,0.00,0.00,VWS V14.01,2013-11-19 04:13:00,
2013-11-18 23:18:00,30.0,29.2,29.49,WSW,247,0.0,0.0,97,0.00,,---,0.00,0.00,VWS V14.01,2013-11-19 04:18:00,
2013-11-18 23:23:00,30.0,29.5,29.49,West,270,0.0,0.0,98,0.00,,---,0.00,0.00,VWS V14.01,2013-11-19 04:23:00,
2013-11-18 23:28:00,30.0,29.2,29.49,WSW,247,0.0,0.0,97,0.00,,---,0.00,0.00,VWS V14.01,2013-11-19 04:28:00,
2013-11-18 23:33:00,30.0,29.2,29.49,WNW,292,0.0,0.0,97,0.00,,---,0.00,0.00,VWS V14.01,2013-11-19 04:33:00,
2013-11-18 23:38:00,30.0,29.2,29.49,WNW,292,0.0,0.0,97,0.00,,---,0.00,0.00,VWS V14.01,2013-11-19 04:38:00,
2013-11-18 23:43:00,30.0,29.2,29.49,WNW,292,0.0,0.0,97,0.00,,---,0.00,0.00,VWS V14.01,2013-11-19 04:43:00,
2013-11-18 23:48:00,30.0,29.5,29.49,WNW,292,0.0,0.0,98,0.00,,---,0.00,0.00,VWS V14.01,2013-11-19 04:48:00,
2013-11-18 23:53:00,30.0,29.5,29.50,West,270,0.0,0.0,98,0.00,,---,0.00,0.00,VWS V14.01,2013-11-19 04:53:00,
2013-11-18 23:58:00,29.0,28.5,29.50,West,270,0.0,0.0,98,0.00,,---,0.00,0.00,VWS V14.01,2013-11-19 04:58:00,